�N����,����,�~����,�C��,���x,�C��,����,���ϕ���,�ő�u�ԕ���,�ő厞����,���˗�,�I�_���x,�n�����x,�ő啗���N��,DTYPE
"23/06/05","00:10",0.0,18.8,77.7,1005.2,300.5,1.7,2.4,325.5,0.00,14.9,19.6,"00:04:56",1
"23/06/05","00:20",0.0,18.5,78.2,1005.2,302.2,1.3,1.9,344.2,0.00,14.7,19.7,"00:12:40",1
"23/06/05","00:30",0.0,18.3,79.0,1005.7,323.4,1.3,2.4,338.1,0.00,14.6,19.3,"00:27:12",1
"23/06/05","00:40",0.0,18.1,79.7,1005.7,327.6,2.0,2.7,337.6,0.00,14.6,19.5,"00:32:16",1
"23/06/05","00:50",0.0,17.9,80.8,1005.5,318.0,1.5,1.8,333.2,0.00,14.6,19.6,"00:43:44",1
"23/06/05","01:00",0.0,17.7,81.6,1005.5,296.0,1.6,2.2,307.4,0.00,14.6,19.5,"00:58:40",1
"23/06/05","01:10",0.0,17.5,82.1,1005.7,302.0,1.6,2.1,311.8,0.00,14.5,19.3,"01:04:40",1
"23/06/05","01:20",0.0,17.3,82.5,1005.7,291.2,1.1,2.6,324.3,0.00,14.3,19.5,"01:16:40",1
"23/06/05","01:30",0.0,17.2,82.9,1005.0,279.8,1.2,2.0,266.7,0.00,14.3,19.2,"01:25:12",1
"23/06/05","01:40",0.0,17.3,82.6,1005.0,299.7,1.6,2.4,309.3,0.00,14.4,19.4,"01:36:00",1
"23/06/05","01:50",0.0,17.3,82.1,1005.0,305.5,1.2,2.0,318.3,0.00,14.3,19.3,"01:40:32",1
"23/06/05","02:00",0.0,17.2,82.4,1005.5,318.8,1.3,1.9,308.1,0.00,14.2,19.2,"01:54:00",1
"23/06/05","02:10",0.0,16.9,82.7,1005.5,299.9,1.7,2.6,323.2,0.00,14.0,19.3,"02:04:24",1
"23/06/05","02:20",0.0,17.0,82.5,1005.2,316.9,2.3,3.7,336.5,0.00,14.0,19.2,"02:19:04",1
"23/06/05","02:30",0.0,17.0,82.4,1005.5,316.7,1.5,2.7,333.0,0.00,14.0,19.2,"02:21:04",1
"23/06/05","02:40",0.0,17.0,82.3,1005.5,331.4,1.3,1.7,339.9,0.00,14.0,19.3,"02:32:48",1
"23/06/05","02:50",0.0,17.0,82.6,1005.5,319.5,1.2,1.9,331.5,0.00,14.1,19.2,"02:43:52",1
"23/06/05","03:00",0.0,16.9,82.5,1005.2,322.1,2.3,3.9,339.1,0.00,13.9,19.3,"02:54:40",1
"23/06/05","03:10",0.0,17.0,82.0,1005.2,290.8,1.6,2.8,316.9,0.00,13.9,19.2,"03:01:04",1
"23/06/05","03:20",0.0,16.6,82.1,1005.5,279.7,0.8,1.3,270.6,0.00,13.6,19.2,"03:18:08",1
"23/06/05","03:30",0.0,16.2,82.5,1005.5,310.9,1.0,1.7,337.3,0.00,13.3,18.8,"03:25:28",1
"23/06/05","03:40",0.0,16.1,83.3,1005.5,290.0,1.2,1.7,317.2,0.00,13.3,19.0,"03:38:16",1
"23/06/05","03:50",0.0,16.1,83.9,1005.7,326.7,1.2,1.7,340.5,0.00,13.4,19.0,"03:47:20",1
"23/06/05","04:00",0.0,16.1,84.6,1006.0,307.3,1.1,1.6,317.9,0.00,13.5,19.0,"03:51:28",1
"23/06/05","04:10",0.0,15.8,85.1,1005.7,316.5,1.1,1.7,306.3,0.00,13.3,19.1,"04:00:08",1
"23/06/05","04:20",0.0,15.6,85.6,1006.0,302.1,1.1,1.9,327.9,0.00,13.2,19.0,"04:10:40",1
"23/06/05","04:30",0.0,15.7,86.2,1005.7,315.0,1.1,1.6,322.6,0.00,13.4,18.9,"04:23:04",1
"23/06/05","04:40",0.0,15.5,86.8,1006.0,298.4,1.1,1.6,315.8,0.00,13.4,18.7,"04:37:20",1
"23/06/05","04:50",0.0,15.5,87.0,1006.0,304.3,1.3,2.1,328.4,0.00,13.4,18.8,"04:43:28",1
"23/06/05","05:00",0.0,15.5,87.1,1006.0,306.0,1.0,1.4,339.3,0.00,13.4,18.9,"04:58:08",1
"23/06/05","05:10",0.0,15.7,87.2,1005.7,318.8,1.2,1.6,332.6,0.00,13.6,18.8,"05:01:12",1
"23/06/05","05:20",0.0,15.5,87.3,1005.7,297.7,1.0,1.8,322.1,0.00,13.4,18.7,"05:13:20",1
"23/06/05","05:30",0.0,15.5,87.3,1005.7,289.4,1.2,1.7,317.8,0.00,13.4,18.7,"05:27:36",1
"23/06/05","05:40",0.0,15.7,87.2,1005.7,326.2,1.1,1.6,334.2,0.00,13.6,18.6,"05:33:28",1
"23/06/05","05:50",0.0,15.6,87.4,1005.7,311.2,1.2,1.4,314.7,0.00,13.6,18.6,"05:40:08",1
"23/06/05","06:00",0.0,15.5,87.8,1006.0,276.7,1.0,1.3,260.0,0.00,13.5,18.6,"05:56:40",1
"23/06/05","06:10",0.0,15.6,88.1,1006.2,321.5,1.5,1.9,321.9,0.00,13.7,18.5,"06:00:40",1
"23/06/05","06:20",0.0,15.6,88.2,1005.7,309.1,1.2,1.8,317.2,0.01,13.7,18.5,"06:10:16",1
"23/06/05","06:30",0.0,15.7,88.4,1006.0,293.3,1.2,1.7,311.9,0.02,13.8,18.6,"06:23:52",1
"23/06/05","06:40",0.0,15.9,88.1,1006.2,319.5,1.5,2.0,323.4,0.02,14.0,18.5,"06:30:24",1
"23/06/05","06:50",0.0,16.4,87.8,1006.2,317.5,1.3,1.8,320.0,0.02,14.4,18.7,"06:44:00",1
"23/06/05","07:00",0.0,16.6,87.6,1006.2,292.3,1.0,1.4,322.6,0.03,14.6,18.5,"06:50:24",1
"23/06/05","07:10",0.0,16.9,87.2,1006.2,303.0,1.1,1.8,331.6,0.05,14.8,18.5,"07:08:16",1
"23/06/05","07:20",0.0,17.1,86.4,1006.2,330.2,1.3,2.0,333.3,0.04,14.9,18.7,"07:12:32",1
"23/06/05","07:30",0.0,17.5,86.0,1006.2,313.9,1.2,1.8,327.7,0.05,15.2,18.6,"07:21:28",1
"23/06/05","07:40",0.0,17.4,85.3,1006.2,282.7,1.0,1.3,296.4,0.06,14.9,18.4,"07:32:32",1
"23/06/05","07:50",0.0,17.8,84.5,1006.0,295.0,1.0,1.4,313.6,0.08,15.2,18.5,"07:47:20",1
"23/06/05","08:00",0.0,18.3,83.4,1006.4,308.8,1.1,1.8,336.5,0.10,15.5,18.3,"07:57:36",1
"23/06/05","08:10",0.0,18.7,82.1,1006.4,334.1,1.3,2.0,333.4,0.12,15.6,18.5,"08:00:48",1
"23/06/05","08:20",0.0,19.5,80.1,1006.4,332.8,0.8,1.6,328.3,0.15,16.0,18.5,"08:10:48",1
"23/06/05","08:30",0.0,20.2,76.9,1006.2,301.3,0.7,1.6,321.2,0.20,16.1,18.5,"08:24:08",1
"23/06/05","08:40",0.0,20.8,73.3,1006.4,331.8,0.3,1.0,20.5,0.21,15.9,18.4,"08:37:20",1
"23/06/05","08:50",0.0,21.5,70.0,1006.2,331.1,0.7,1.2,118.5,0.19,15.8,18.6,"08:44:48",1
"23/06/05","09:00",0.0,21.7,69.2,1006.2,270.1,0.5,1.3,312.5,0.17,15.9,18.5,"08:50:40",1
"23/06/05","09:10",0.0,22.0,68.8,1006.0,304.4,0.5,1.0,263.0,0.20,16.0,18.7,"09:09:28",1
"23/06/05","09:20",0.0,22.3,66.1,1006.2,298.5,0.7,1.3,342.5,0.24,15.7,18.6,"09:17:36",1
"23/06/05","09:30",0.0,22.8,65.2,1005.7,339.0,0.8,1.8,341.5,0.22,16.0,18.7,"09:22:16",1
"23/06/05","09:40",0.0,23.2,64.8,1005.5,341.4,0.5,1.2,326.7,0.24,16.3,18.7,"09:33:28",1
"23/06/05","09:50",0.0,23.3,63.4,1005.2,18.7,0.6,2.0,351.2,0.27,16.0,18.7,"09:48:24",1
"23/06/05","10:00",0.0,23.5,62.7,1005.0,206.5,0.5,1.1,341.1,0.27,16.0,18.7,"09:50:08",1
"23/06/05","10:10",0.0,23.9,62.8,1004.5,293.2,0.5,2.0,350.7,0.35,16.4,18.7,"10:07:04",1
"23/06/05","10:20",0.0,24.4,59.8,1005.0,354.2,0.5,1.3,320.3,0.37,16.1,18.9,"10:11:52",1
"23/06/05","10:30",0.0,24.8,59.0,1005.0,166.2,0.6,1.3,333.5,0.40,16.3,18.7,"10:28:16",1
"23/06/05","10:40",0.0,25.6,58.1,1005.2,44.3,0.7,2.1,113.3,0.45,16.8,18.8,"10:39:28",1
"23/06/05","10:50",0.0,26.2,57.7,1005.5,158.7,0.6,2.4,89.4,0.52,17.2,18.8,"10:40:16",1
"23/06/05","11:00",0.0,26.2,58.5,1005.2,191.9,1.6,3.5,190.9,0.54,17.5,19.1,"10:59:52",1
"23/06/05","11:10",0.0,26.4,58.8,1005.2,199.1,1.2,3.4,191.2,0.57,17.7,19.0,"11:00:40",1
"23/06/05","11:20",0.0,26.0,56.7,1005.2,125.9,1.6,3.3,55.3,0.48,16.8,19.1,"11:16:48",1
"23/06/05","11:30",0.0,26.3,57.6,1004.8,159.6,1.2,3.1,228.2,0.48,17.3,19.1,"11:27:04",1
"23/06/05","11:40",0.0,26.5,55.6,1005.0,193.2,1.3,3.3,224.4,0.44,16.9,19.3,"11:38:16",1
"23/06/05","11:50",0.0,26.4,54.3,1005.0,191.9,1.5,2.7,243.0,0.44,16.5,19.3,"11:48:08",1
"23/06/05","12:00",0.0,27.6,53.4,1005.0,125.7,0.8,2.5,113.7,0.59,17.3,19.3,"11:52:48",1
"23/06/05","12:10",0.0,27.7,51.2,1005.0,150.5,1.2,3.2,185.5,0.57,16.8,19.4,"12:00:02",1
"23/06/05","12:20",0.0,27.8,50.1,1005.0,214.0,1.2,3.5,205.6,0.61,16.5,19.7,"12:11:20",1
"23/06/05","12:30",0.0,28.1,48.2,1004.8,157.8,1.6,3.1,217.7,0.62,16.2,19.6,"12:26:08",1
"23/06/05","12:40",0.0,28.1,46.8,1004.8,144.8,1.5,3.5,121.8,0.62,15.7,19.8,"12:32:24",1
"23/06/05","12:50",0.0,28.4,46.6,1004.5,163.4,1.7,4.2,216.4,0.63,15.9,19.7,"12:43:12",1
"23/06/05","13:00",0.0,28.4,40.0,1004.8,157.6,1.1,2.8,250.8,0.50,13.5,19.8,"12:52:48",1
"23/06/05","13:10",0.0,27.7,48.6,1004.1,220.3,2.1,4.2,198.5,0.49,15.9,20.1,"13:04:32",1
"23/06/05","13:20",0.0,28.4,47.9,1004.5,276.4,1.1,3.3,188.1,0.53,16.3,19.8,"13:18:00",1
"23/06/05","13:30",0.0,28.8,50.4,1004.5,121.9,1.5,4.4,119.2,0.53,17.5,20.0,"13:24:48",1
"23/06/05","13:40",0.0,28.4,51.5,1004.1,131.5,1.3,3.1,159.7,0.35,17.5,20.1,"13:30:40",1
"23/06/05","13:50",0.0,28.2,51.6,1004.1,139.4,1.7,3.2,138.3,0.35,17.3,20.3,"13:49:52",1
"23/06/05","14:00",0.0,27.6,52.7,1003.6,183.7,2.0,4.7,207.1,0.25,17.1,20.3,"13:52:16",1
"23/06/05","14:10",0.0,27.6,48.6,1003.6,183.8,1.5,3.2,139.7,0.26,15.8,20.2,"14:01:36",1
"23/06/05","14:20",0.0,27.7,51.3,1003.4,187.7,1.7,3.5,238.2,0.24,16.8,20.4,"14:12:32",1
"23/06/05","14:30",0.0,27.3,50.1,1003.1,169.5,2.2,5.4,195.1,0.24,16.0,20.5,"14:28:24",1
"23/06/05","14:40",0.0,27.4,48.5,1002.9,192.9,1.8,3.7,240.6,0.20,15.6,20.5,"14:34:40",1
"23/06/05","14:50",0.0,27.6,47.8,1002.9,193.7,2.1,3.3,195.9,0.24,15.6,20.4,"14:44:00",1
"23/06/05","15:00",0.0,27.5,46.3,1002.6,190.2,2.5,4.9,200.5,0.22,15.0,20.5,"14:50:16",1
"23/06/05","15:10",0.0,27.4,48.2,1002.6,206.2,2.5,4.1,223.6,0.18,15.5,20.6,"15:03:28",1
"23/06/05","15:20",0.0,27.0,47.3,1002.2,201.2,2.6,5.1,241.1,0.18,14.9,20.6,"15:19:36",1
"23/06/05","15:30",0.0,27.1,48.4,1001.7,216.0,2.1,4.5,198.9,0.18,15.3,20.6,"15:28:48",1
"23/06/05","15:40",0.0,26.8,50.0,1001.9,222.2,2.1,4.3,216.7,0.15,15.6,20.9,"15:33:20",1
"23/06/05","15:50",0.0,27.0,49.7,1001.9,221.7,1.5,2.9,237.0,0.14,15.6,20.6,"15:46:08",1
"23/06/05","16:00",0.0,27.1,50.0,1001.9,217.6,1.3,2.7,212.8,0.15,15.8,20.8,"15:51:20",1
"23/06/05","16:10",0.0,26.8,48.2,1001.9,241.9,1.6,3.3,211.2,0.13,15.0,20.5,"16:01:52",1
"23/06/05","16:20",0.0,26.9,48.4,1001.9,242.3,1.7,3.2,240.5,0.14,15.1,20.8,"16:17:20",1
"23/06/05","16:30",0.0,27.4,47.9,1002.4,231.1,1.7,3.7,240.3,0.22,15.4,20.7,"16:27:36",1
"23/06/05","16:40",0.0,27.2,50.7,1001.9,299.5,1.3,2.9,346.7,0.14,16.1,20.8,"16:36:40",1
"23/06/05","16:50",0.0,27.0,49.4,1002.2,314.9,1.6,2.9,337.3,0.13,15.5,20.8,"16:40:40",1
"23/06/05","17:00",0.0,27.2,50.6,1002.4,281.9,0.7,2.5,236.2,0.11,16.1,20.8,"16:50:08",1
"23/06/05","17:10",0.0,27.1,49.5,1002.2,270.8,1.0,2.8,245.7,0.10,15.7,20.7,"17:02:08",1
"23/06/05","17:20",0.0,26.7,50.7,1002.2,258.9,1.2,4.0,244.2,0.07,15.7,20.8,"17:17:52",1
"23/06/05","17:30",0.0,26.4,53.4,1002.2,258.9,1.7,4.2,240.7,0.07,16.2,20.7,"17:23:12",1
"23/06/05","17:40",0.0,26.2,54.2,1002.4,288.9,1.5,2.9,236.3,0.07,16.3,21.0,"17:39:28",1
"23/06/05","17:50",0.0,26.1,54.9,1002.6,292.4,1.3,2.9,354.0,0.06,16.4,20.7,"17:45:12",1
"23/06/05","18:00",0.0,26.0,55.6,1002.6,322.7,1.8,3.3,316.8,0.06,16.5,20.8,"17:54:32",1
"23/06/05","18:10",0.0,25.8,55.4,1002.9,305.7,1.5,3.2,335.0,0.05,16.2,20.7,"18:00:48",1
"23/06/05","18:20",0.0,25.6,55.2,1002.6,312.4,1.6,3.3,328.8,0.04,16.0,20.9,"18:12:56",1
"23/06/05","18:30",0.0,25.5,55.3,1003.1,316.7,1.2,2.4,318.7,0.03,15.9,20.8,"18:20:32",1
"23/06/05","18:40",0.0,25.3,55.8,1002.9,332.3,1.5,2.6,329.2,0.03,15.9,20.7,"18:33:44",1
"23/06/05","18:50",0.0,25.3,55.9,1003.1,329.0,1.3,2.8,331.0,0.02,15.9,20.8,"18:43:52",1
"23/06/05","19:00",0.0,25.0,56.5,1003.4,336.3,0.8,2.0,349.4,0.02,15.8,20.6,"18:54:00",1
"23/06/05","19:10",0.0,24.9,57.6,1003.6,341.0,0.8,1.4,353.0,0.02,16.0,20.9,"19:05:52",1
"23/06/05","19:20",0.0,24.5,59.6,1003.4,331.7,0.8,1.3,333.1,0.01,16.2,20.7,"19:12:16",1
"23/06/05","19:30",0.0,24.4,63.4,1003.6,331.5,1.1,1.7,339.9,0.00,17.0,20.7,"19:27:52",1
"23/06/05","19:40",0.0,23.7,66.0,1003.8,305.9,1.1,1.7,335.3,0.00,17.0,20.8,"19:34:00",1
"23/06/05","19:50",0.0,23.0,67.1,1003.8,307.1,1.3,2.6,345.9,0.00,16.6,20.8,"19:44:08",1
"23/06/05","20:00",0.0,22.6,68.4,1004.1,303.8,1.3,2.0,306.4,0.00,16.5,20.7,"19:51:12",1
"23/06/05","20:10",0.0,22.3,69.6,1004.3,312.3,1.5,1.9,318.1,0.00,16.5,20.7,"20:04:32",1
"23/06/05","20:20",0.0,21.9,70.3,1004.1,288.4,1.3,2.6,301.7,0.00,16.3,20.7,"20:12:32",1
"23/06/05","20:30",0.0,21.7,70.9,1004.5,299.6,1.6,2.8,327.2,0.00,16.2,20.7,"20:28:48",1
"23/06/05","20:40",0.0,21.6,71.0,1004.5,301.9,1.8,2.9,317.2,0.00,16.2,20.7,"20:30:56",1
"23/06/05","20:50",0.0,21.3,71.1,1004.5,313.7,1.7,2.2,314.5,0.00,15.9,20.6,"20:46:16",1
"23/06/05","21:00",0.0,21.1,71.5,1004.5,300.2,1.6,2.2,303.2,0.00,15.8,20.5,"20:50:08",1
"23/06/05","21:10",0.0,20.9,72.1,1004.8,326.2,2.3,2.9,330.4,0.00,15.7,20.6,"21:01:04",1
"23/06/05","21:20",0.0,20.6,72.8,1004.8,305.5,1.7,2.9,311.7,0.00,15.6,20.4,"21:11:12",1
"23/06/05","21:30",0.0,20.3,73.5,1004.5,299.0,1.5,2.2,322.8,0.00,15.5,20.5,"21:29:04",1
"23/06/05","21:40",0.0,20.0,74.5,1004.8,316.1,1.6,2.1,331.1,0.00,15.4,20.5,"21:34:08",1
"23/06/05","21:50",0.0,19.8,74.9,1004.8,317.6,2.1,2.7,309.4,0.00,15.3,20.4,"21:41:52",1
"23/06/05","22:00",0.0,19.7,74.9,1005.0,316.9,2.2,3.3,314.4,0.00,15.2,20.4,"21:56:08",1
"23/06/05","22:10",0.0,19.5,74.9,1005.5,316.2,1.8,2.4,336.1,0.00,15.0,20.2,"22:01:04",1
"23/06/05","22:20",0.0,19.4,74.8,1005.2,312.9,2.0,3.3,335.3,0.00,14.9,20.3,"22:17:44",1
"23/06/05","22:30",0.0,19.2,75.1,1005.2,312.2,1.5,2.6,321.1,0.00,14.7,20.3,"22:21:12",1
"23/06/05","22:40",0.0,19.0,75.3,1005.0,253.5,1.1,1.6,248.9,0.00,14.6,20.4,"22:35:36",1
"23/06/05","22:50",0.0,19.0,76.0,1005.2,313.1,1.3,2.9,339.2,0.00,14.7,20.3,"22:47:20",1
"23/06/05","23:00",0.0,18.7,77.2,1005.5,332.4,2.1,2.8,343.1,0.00,14.7,20.2,"22:51:44",1
"23/06/05","23:10",0.0,18.3,77.6,1006.0,294.2,0.6,1.3,312.3,0.00,14.4,20.1,"23:00:24",1
"23/06/05","23:20",0.0,18.1,78.7,1005.7,291.7,1.3,2.8,325.4,0.00,14.4,20.1,"23:12:40",1
"23/06/05","23:30",0.0,17.9,79.4,1006.0,300.8,1.2,2.2,312.1,0.00,14.3,19.9,"23:29:20",1
"23/06/05","23:40",0.0,18.0,79.4,1005.7,323.7,2.3,2.8,317.5,0.00,14.4,19.9,"23:32:48",1
"23/06/05","23:50",0.0,17.8,79.5,1005.5,337.0,0.6,1.9,319.3,0.00,14.2,19.9,"23:40:16",1
"23/06/05","24:00",0.0,17.5,80.0,1005.7,283.5,0.8,1.3,260.2,0.00,14.1,19.9,"23:57:04",1
